User: anonymous   Login
Location: Unspecified
(0.0000°N, 0.0000°E)
Time: 12:20:16
(UTC+00:00)
Language:

VENTA 1 - Orbit

View from above orbital plane
View from above orbital plane
View from above satellite
View from above satellite

Ground track
Ground track

The orbit data is extracted from the following two-line orbital elements,

1 42791U 17036AC  18347.71671156 +.00001070 +00000-0 +49296-4 0  9999
2 42791 097.3790 044.5701 0011885 159.7428 200.4282 15.22368929081813
Epoch (UTC): 13 December 2018 17:12:03
Eccentricity: 0.0011885
inclination: 97.3790°
perigee height: 490 km
apogee height: 507 km
right ascension of ascending node: 44.5701°
argument of perigee: 159.7428°
revolutions per day: 15.22368929
mean anomaly at epoch: 200.4282°
orbit number at epoch: 8181

The dashed part of the orbit path shows where the satellite is in the earth's shadow,  

DLR